GAOFEN 3 02

导读 | 星芒AI

高分三号02星(GAOFEN-3 02)是中国高分辨率对地观测系统的重要组成部分,于2021年发射。该卫星是高分三号系列的第二颗卫星,具备高分辨率、多模式、全天候、全天时的SAR(合成孔径雷达)成像能力。其地面分辨率可达1米,支持多种成像模式,广泛应用于海洋监测、灾害预警、国土测绘等领域,显著提升了中国在高精度遥感数据获取方面的能力。

基本信息
目录编号:
49495
目录名称:
GAOFEN 3 02
国际标识:
2021-109A
轨道中心:
EARTH
卫星名称:
GAOFEN 3 02
卫星全名:
--
卫星状态:
在轨 (已飞行1437 天)
发射日期:
2021-11-22 UTC
国别 :
中国 (CN)
星等 :
--
轨道信息
数据来源 国际轨道数据 AOE轨道数据
星历时间 2025-10-28T22:29:25+0800
16小时前
查看轨道信息
2025-10-26T08:00:00+0800
3天前
查看轨道信息
半长轴 7129.354km 7129.356km
偏心率 0.0002145 0.0002256
轨道倾角 98.414° 98.413°
近地点辐角 357.015° 3.176°
升交点赤经 307.974° 305.406°
平近点角 3.102° 166.180°
近地点 749.689km 749.612km
远地点 752.749km 752.83km
周期 99.847分钟 99.847分钟
每日圈数 14.422068 14.422062
详细信息
使用方式:
暂无
2D轨道图
3D轨道图
轨道高度分析图
轨道倾角分析图
轨道综合分析图
查看轨道综合分析图